Regional Weather Roundup
Issued by NWS

Home | Current Version | Previous Version | Text Only | Print | Product List | Glossary Off
Versions: 1 2 3 4 5 6 7 8 9 10 11 12 13 14 15 16 17 18 19 20 21 22 23 24 25 26 27 28 29 30 31 32 33 34 35 36 37 38 39 40 41 42 43 44 45 46 47 48 49 50

000
ASUS43 KIND 052309
RWRIN

WEATHER ROUNDUP FOR INDIANA
NATIONAL WEATHER SERVICE INDIANAPOLIS IN
700 PM EDT SUN JUL 05 2015

NOTE: "FAIR" INDICATES FEW OR NO CLOUDS BELOW 12,000 FEET WITH NO
SIGNIFICANT WEATHER AND/OR OBSTRUCTIONS TO VISIBILITY.

* - STATION DOES NOT REPORT WEATHER SUCH AS PRECIPITATION OR FOG.

+ - STATION NOT QUALITY CONTROLLED BY THE NATIONAL WEATHER SERVICE.
    USE DATA WITH CAUTION...ESPECIALLY DEWPOINT AND RELATIVE
    HUMIDITY OBSERVATIONS.

INZ001>003-010>013-019-020-060000-
NORTHWEST INDIANA

CITY           SKY/WX    TMP DP  RH WIND       PRES   REMARKS
GARY /AIRPORT/ MOSUNNY  N/A N/A N/A SE8       30.05S
KNOX *+        SUNNY     81  59  47 SE3       30.05S
LA PORTE +     SUNNY     82  61  49 S3        30.07S
MICHIGAN CITY+ SUNNY     81  57  44 S5        30.05F
MONTICELLO +   SUNNY     81  62  52 SE3       30.05S
RENSSELAER +   SUNNY     81  59  47 S3        30.05F
VALPARAISO     SUNNY     81  60  48 S6        30.06S

$$

LMZ046-743>745-060000-
SOUTHERN LAKE MICHIGAN

STATION/POSITION TIME  TEMP    WIND        PRES    WAVE
                       AIR SEA DIR/SP/G            HT
                 (UTC) (F)     (DEG/KT/KT) (MB)    (FT)
BURNS HARBOR     2300   73      60/  6/ 11 1017.9S
MICHIGAN CITY    2300   70      40/ 10/ 11   N/A
5NW MICH CITY    2300   70 68   80/  6/  8   N/A     1

$$

INZ004-005-014>016-021>024-060000-
NORTH CENTRAL INDIANA

CITY           SKY/WX    TMP DP  RH WIND       PRES   REMARKS
GOSHEN         MOSUNNY   81  61  50 S5        30.07S
LOGANSPORT +   MOSUNNY   81  54  39 CALM      30.06F
PERU/GRISSOM   MOSUNNY   81  63  53 S2        30.05F
ROCHESTER +    SUNNY     82  59  44 S5        30.07S
SOUTH BEND     SUNNY     82  59  45 VRB6      30.06F
WARSAW +         N/A     81  61  50 E3        30.07S

$$

INZ006>009-017-018-025>027-060000-
NORTHEAST INDIANA

CITY           SKY/WX    TMP DP  RH WIND       PRES   REMARKS
ANGOLA *+        N/A     82  75  78 E5        30.08S
AUBURN +       PTSUNNY   77  59  53 CALM      30.09S
FORT WAYNE     PTSUNNY   78  62  57 CALM      30.08S
HUNTINGTON +   PTSUNNY   78  60  55 SE3       30.07S

$$

INZ028-029-035-036-043>045-051>053-060000-
WEST CENTRAL INDIANA

CITY           SKY/WX    TMP DP  RH WIND       PRES   REMARKS
GREENCASTLE +  PTSUNNY   79  61  53 SE5       30.07S
LAFAYETTE      SUNNY     80  60  50 S3        30.04F
TERRE HAUTE    MOSUNNY   82  68  62 SE7       30.04S

$$

INZ030>032-037>040-046>048-054>057-064-065-060000-
CENTRAL INDIANA

CITY           SKY/WX    TMP DP  RH WIND       PRES   REMARKS
CP ATTERBURY + PTSUNNY   79  63  57 CALM      30.07F
COLUMBUS       PTSUNNY   77  59  53 E7        30.07R
FRANKFORT +    PTSUNNY   83  62  49 CALM      30.08S
GREENWOOD *+   PTSUNNY   77  59  53 E3        30.08S
INDIANAPOLIS   PTSUNNY   77  61  57 SE9       30.05F
-EAGLE CREEK   PTSUNNY   78  63  59 SE7       30.06S
KOKOMO *+      PTSUNNY   81  61  50 SE6       30.05F
MARION +       PTSUNNY   77  61  58 CALM      30.08S
MT COMFORT *+  PTSUNNY   77  55  47 CALM      30.08S
SHELBYVILLE    PTSUNNY   80  63  55 CALM      30.06S
ZIONSVILLE +   PTSUNNY   79  61  54 SE7       30.08S

$$

INZ033-034-041-042-049-050-058-059-060000-
EAST CENTRAL INDIANA

CITY           SKY/WX    TMP DP  RH WIND       PRES   REMARKS
MUNCIE         MOSUNNY   80  60  50 VRB3      30.07S

$$

INZ060-061-067>069-081>083-085>088-060000-
SOUTHWEST INDIANA

CITY           SKY/WX    TMP DP  RH WIND       PRES   REMARKS
EVANSVILLE     MOSUNNY   83  68  60 E6        30.02F HAZE
HUNTINGBURG *+ MOSUNNY   81  68  65 E3        30.03F
WASHINGTON +   MOSUNNY   81  62  52 SE3       30.02F

$$

INZ062-063-066-070>080-084-089>092-060000-
SOUTH CENTRAL AND SOUTHEAST INDIANA

CITY           SKY/WX    TMP DP  RH WIND       PRES   REMARKS
BLOOMINGTON    PTSUNNY   80  65  59 S5        30.06F
MADISON *+     PTSUNNY   77  57  50 CALM      30.09S
NORTH VERNON + PTSUNNY   81  63  54 CALM      30.08S
SEYMOUR +      MOSUNNY   79  66  65 SE5       30.06F

$$




USA.gov is the U.S. government's official web portal to all federal, state and local government web resources and services.